Find STARLINK-38102

NORAD ID: 799501200 Int'l Des: 2026-160Y Constellation: starlink operational

Aktuelle Ansicht

3D-Globus wird geladen...

About STARLINK-38102

STARLINK-38102 (NORAD 799501200) is a starlink constellation satellite launched Jul 9, 2026

Über STARLINK-38102

Beschreibung wird geladen...

Nächste Überflüge

Passes for default location (London). Set your location on the main map for personalized predictions.

Höhenverlauf

Loading altitude history...

Zweizeiliger Elementsatz

1 99999C 2026160Y 26195.35534721 .00646150 00000-0 808370-4 0 1955
2 99999 70.0018 28.7150 0010287 259.4055 125.2048 16.06973889 14
Epoch: 14. Juli 2026 • Age: 8 hours